Columbia County, Pennsylvania, United States
Lat: 41.04N, Lon: 76.43W
Wx Zone: PAZ053
Local Info
Past Weather Observations for Wednesday, February 3, 2016

NOTE: This archive is for the closest National Weather Service station to Columbia County. Information may differ from the station used for current weather conditions.

Click here for Long-term Archive

Time Weather Temperature Dewpoint Humidity Pressure Winds Precip Visibility
23:53
Overcast
Fog
43°F / 6°C 43°F / 6°C 100% 29.86 in
(1011 mb)
Calm - 1/2SM
23:47
Overcast
Fog And Mist
45°F / 7°C 45°F / 7°C 100% 29.86 in
(1011 mb)
Calm - 1 1/4SM
23:19
Overcast
Fog And Mist
45°F / 7°C 43°F / 6°C 93% 29.86 in
(1011 mb)
Calm - 3/4SM
23:16
Overcast
Fog And Mist
45°F / 7°C 45°F / 7°C 100% 29.86 in
(1011 mb)
Calm - 1 1/4SM
23:03
Overcast
Fog And Mist
46°F / 8°C 45°F / 7°C 93% 29.86 in
(1011 mb)
Variable 3.5 mph
(Variable 6 kph)
- 2 1/2SM
22:53
Overcast
Fog And Mist
46°F / 8°C 45°F / 7°C 93% 29.86 in
(1011 mb)
S 6.9 mph
(S 11 kph)
- 3SM
22:45
Overcast
Fog And Mist
45°F / 7°C 45°F / 7°C 100% 29.86 in
(1011 mb)
SW 6.9 mph
(SW 11 kph)
- 3SM
22:32
Overcast
Fog And Mist
45°F / 7°C 43°F / 6°C 93% 29.86 in
(1011 mb)
Calm - 1 1/2SM
22:29
Overcast
Fog And Mist
45°F / 7°C 45°F / 7°C 100% 29.86 in
(1011 mb)
Calm - 2SM
22:20
Overcast
Fog And Mist
45°F / 7°C 45°F / 7°C 100% 29.86 in
(1011 mb)
S 3.5 mph
(S 6 kph)
- 2 1/2SM
22:11
Overcast
Fog And Mist
45°F / 7°C 45°F / 7°C 100% 29.86 in
(1011 mb)
Variable 3.5 mph
(Variable 6 kph)
- 1 3/4SM
21:53
Overcast
Fog And Mist
45°F / 7°C 45°F / 7°C 100% 29.86 in
(1011 mb)
S 4.6 mph
(S 7 kph)
- 2 1/2SM
21:50
Overcast
Fog And Mist
45°F / 7°C 45°F / 7°C 100% 29.86 in
(1011 mb)
S 4.6 mph
(S 7 kph)
- 2 1/2SM
21:40
Overcast
Fog And Mist
45°F / 7°C 43°F / 6°C 93% 29.86 in
(1011 mb)
Calm - 1 1/4SM
21:29
Overcast
Fog
43°F / 6°C 41°F / 5°C 93% 29.86 in
(1011 mb)
SSE 4.6 mph
(SSE 7 kph)
- 1/4SM
20:53
Overcast
Fog
43°F / 6°C 41°F / 5°C 93% 29.86 in
(1011 mb)
SSE 3.5 mph
(SSE 6 kph)
- 1/4SM
20:14
Overcast
Fog
45°F / 7°C 43°F / 6°C 93% 29.83 in
(1010 mb)
Calm - 1/2SM
20:06
Overcast
Fog And Mist
45°F / 7°C 43°F / 6°C 93% 29.83 in
(1010 mb)
Calm - 1SM
19:53
Overcast
Fog And Mist
45°F / 7°C 45°F / 7°C 100% 29.83 in
(1010 mb)
Calm - 2 1/2SM
19:51
Overcast
Fog And Mist
45°F / 7°C 45°F / 7°C 100% 29.83 in
(1010 mb)
Calm - 2SM
19:46
Overcast
Fog And Mist
45°F / 7°C 43°F / 6°C 93% 29.83 in
(1010 mb)
Calm - 1 1/4SM
19:33
Overcast
Fog And Mist
45°F / 7°C 43°F / 6°C 93% 29.83 in
(1010 mb)
Calm - 2 1/2SM
19:23
Overcast
Fog And Mist
45°F / 7°C 43°F / 6°C 93% 29.83 in
(1010 mb)
SSW 3.5 mph
(SSW 6 kph)
- 3SM
19:16
Overcast
Fog And Mist
45°F / 7°C 45°F / 7°C 100% 29.83 in
(1010 mb)
SW 5.8 mph
(SW 9 kph)
- 2 1/2SM
19:08
Overcast
Fog And Mist
45°F / 7°C 43°F / 6°C 93% 29.8 in
(1009 mb)
Calm - 1 3/4SM
18:53
Overcast
Fog And Mist
45°F / 7°C 43°F / 6°C 93% 29.8 in
(1009 mb)
Calm - 2 1/2SM
17:53
Overcast
Fog And Mist
43°F / 6°C 41°F / 5°C 93% 29.8 in
(1009 mb)
SSE 9.2 mph
(SSE 15 kph)
- 5SM
17:40
Overcast
Fog And Mist
43°F / 6°C 43°F / 6°C 100% 29.8 in
(1009 mb)
S 6.9 mph
(S 11 kph)
- 5SM
16:53
Overcast
Fog And Mist
43°F / 6°C 41°F / 5°C 93% 29.8 in
(1009 mb)
Calm - 6SM
15:53
Overcast
45°F / 7°C 43°F / 6°C 93% 29.77 in
(1008 mb)
Variable 4.6 mph
(Variable 7 kph)
- 9SM
15:05
Overcast
45°F / 7°C 43°F / 6°C 93% 29.8 in
(1009 mb)
W 8.1 mph
(W 13 kph)
- 10SM
14:53
Overcast
45°F / 7°C 43°F / 6°C 93% 29.74 in
(1007 mb)
SSE 5.8 mph
(SSE 9 kph)
- 10SM
13:53
Overcast
43°F / 6°C 41°F / 5°C 93% 29.83 in
(1010 mb)
Variable 4.6 mph
(Variable 7 kph)
- 10SM
12:53
Overcast
43°F / 6°C 41°F / 5°C 93% 29.92 in
(1013 mb)
WNW 8.1 mph
(WNW 13 kph)
0.00 in
(0.00 mm)
10SM
12:50
Overcast
43°F / 6°C 41°F / 5°C 93% 29.89 in
(1012 mb)
Variable 4.6 mph
(Variable 7 kph)
0.00 in
(0.00 mm)
10SM
12:24
Overcast
Fog And Mist
43°F / 6°C 39°F / 4°C 87% 29.92 in
(1013 mb)
Calm 0.00 in
(0.00 mm)
6SM
12:13
Overcast
Light Rain
41°F / 5°C 39°F / 4°C 93% 29.92 in
(1013 mb)
Calm 0.00 in
(0.00 mm)
3SM
12:09
Overcast
Light Rain
39°F / 4°C 39°F / 4°C 100% 29.92 in
(1013 mb)
NW 4.6 mph
(NW 7 kph)
0.00 in
(0.00 mm)
1 1/4SM
11:57
Overcast
Light Rain
39°F / 4°C 39°F / 4°C 100% 29.92 in
(1013 mb)
SE 4.6 mph
(SE 7 kph)
0.00 in
(0.00 mm)
1/2SM
11:53
Overcast
Light Rain
39°F / 4°C 39°F / 4°C 100% 29.92 in
(1013 mb)
ESE 3.5 mph
(ESE 6 kph)
0.07 in
(1.78 mm)
1 1/4SM
11:49
Overcast
Light Rain
39°F / 4°C 39°F / 4°C 100% 29.95 in
(1014 mb)
Calm 0.06 in
(1.52 mm)
4SM
11:37
Overcast
Light Rain
41°F / 5°C 39°F / 4°C 93% 29.95 in
(1014 mb)
Variable 3.5 mph
(Variable 6 kph)
0.06 in
(1.52 mm)
6SM
11:29
Overcast
Light Rain
41°F / 5°C 39°F / 4°C 93% 29.98 in
(1015 mb)
Calm 0.06 in
(1.52 mm)
4SM
11:10
Overcast
Rain
41°F / 5°C 39°F / 4°C 93% 29.98 in
(1015 mb)
Calm 0.05 in
(1.27 mm)
2SM
10:59
Overcast
Heavy Rain
41°F / 5°C 39°F / 4°C 93% 29.98 in
(1015 mb)
SSW 4.6 mph
(SSW 7 kph)
0.02 in
(0.51 mm)
1 3/4SM
10:56
Overcast
Rain
41°F / 5°C 39°F / 4°C 93% 29.98 in
(1015 mb)
SSW 4.6 mph
(SSW 7 kph)
0.01 in
(0.25 mm)
2SM
10:53
Overcast
Rain
41°F / 5°C 39°F / 4°C 93% 29.98 in
(1015 mb)
SW 3.5 mph
(SW 6 kph)
0.27 in
(6.86 mm)
1 3/4SM
10:46
Overcast
Heavy Rain
41°F / 5°C 39°F / 4°C 93% 29.98 in
(1015 mb)
SW 5.8 mph
(SW 9 kph)
0.25 in
(6.35 mm)
1 3/4SM
10:35
Overcast
Heavy Rain
41°F / 5°C 39°F / 4°C 93% 29.98 in
(1015 mb)
SSW 3.5 mph
(SSW 6 kph)
0.20 in
(5.08 mm)
1SM
10:30
Overcast
Heavy Rain
41°F / 5°C 39°F / 4°C 93% 29.98 in
(1015 mb)
W 3.5 mph
(W 6 kph)
0.16 in
(4.06 mm)
1 1/4SM
10:22
Overcast
Heavy Rain
41°F / 5°C 39°F / 4°C 93% 29.98 in
(1015 mb)
WNW 3.5 mph
(WNW 6 kph)
0.12 in
(3.05 mm)
1 1/2SM
10:20
Overcast
Heavy Rain
39°F / 4°C 39°F / 4°C 100% 29.98 in
(1015 mb)
WNW 3.5 mph
(WNW 6 kph)
0.11 in
(2.79 mm)
1 1/2SM
10:05
Overcast
Rain
41°F / 5°C 39°F / 4°C 93% 29.98 in
(1015 mb)
Variable 5.8 mph
(Variable 9 kph)
0.05 in
(1.27 mm)
1 3/4SM
09:56
Overcast
Rain
39°F / 4°C 39°F / 4°C 100% 29.98 in
(1015 mb)
SSE 4.6 mph
(SSE 7 kph)
0.01 in
(0.25 mm)
2SM
09:53
Overcast
Heavy Rain
41°F / 5°C 39°F / 4°C 93% 29.98 in
(1015 mb)
SSE 4.6 mph
(SSE 7 kph)
0.23 in
(5.84 mm)
2SM
09:46
Overcast
Heavy Rain
41°F / 5°C 39°F / 4°C 93% 30.01 in
(1016 mb)
Variable 3.5 mph
(Variable 6 kph)
0.21 in
(5.33 mm)
1 1/2SM
08:59
Overcast
Rain
41°F / 5°C 39°F / 4°C 93% 30.01 in
(1016 mb)
Calm 0.02 in
(0.51 mm)
1 1/2SM
08:51
Overcast
Rain
41°F / 5°C 39°F / 4°C 93% 30.01 in
(1016 mb)
Calm 0.17 in
(4.32 mm)
2SM
08:50
Overcast
Rain
41°F / 5°C 39°F / 4°C 93% 30.01 in
(1016 mb)
Calm 0.17 in
(4.32 mm)
2SM
08:32
Overcast
Heavy Rain
41°F / 5°C 39°F / 4°C 93% 30.01 in
(1016 mb)
S 3.5 mph
(S 6 kph)
0.12 in
(3.05 mm)
1 1/2SM
07:57
Overcast
Rain
43°F / 6°C 39°F / 4°C 87% 30.04 in
(1017 mb)
Calm 0.01 in
(0.25 mm)
2 1/2SM
07:53
Overcast
Rain
43°F / 6°C 39°F / 4°C 87% 30.04 in
(1017 mb)
Calm 0.12 in
(3.05 mm)
3SM
06:53
Overcast
Light Rain
43°F / 6°C 37°F / 3°C 81% 30.06 in
(1018 mb)
S 6.9 mph
(S 11 kph)
0.02 in
(0.51 mm)
7SM
05:53
Overcast
41°F / 5°C 37°F / 3°C 87% 30.06 in
(1018 mb)
SSE 10.4 mph
(SSE 17 kph)
0.02 in
(0.51 mm)
10SM
04:53
Overcast
Rain
41°F / 5°C 36°F / 2°C 81% 30.09 in
(1019 mb)
S 5.8 mph
(S 9 kph)
0.02 in
(0.51 mm)
7SM
04:01
Overcast
Light Rain
43°F / 6°C 34°F / 1°C 71% 30.15 in
(1021 mb)
S 4.6 mph
(S 7 kph)
0.00 in
(0.00 mm)
10SM
03:53
Overcast
43°F / 6°C 34°F / 1°C 71% 30.15 in
(1021 mb)
SSE 5.8 mph
(SSE 9 kph)
- 10SM
03:49
Overcast
43°F / 6°C 34°F / 1°C 71% 30.15 in
(1021 mb)
S 5.8 mph
(S 9 kph)
- 10SM
03:00
Overcast
43°F / 6°C 30°F / -1°C 61% 30.18 in
(1022 mb)
S 4.6 mph
(S 7 kph)
- 10SM
02:53
Overcast
43°F / 6°C 28°F / -2°C 57% 30.18 in
(1022 mb)
S 9.2 mph
(S 15 kph)
- 10SM
01:53
Overcast
43°F / 6°C 25°F / -4°C 49% 30.18 in
(1022 mb)
S 10.4 mph
(S 17 kph)
- 10SM
00:53
Overcast
43°F / 6°C 27°F / -3°C 53% 30.18 in
(1022 mb)
SSE 8.1 mph
(SSE 13 kph)
- 10SM
Time Weather Temperature Dewpoint Humidity Pressure Winds Precip Visibility


Weather for websites

WeatherForYou.com, LLC is not responsible for any damages or problems caused by this service. Current weather conditions are obtained from the closest station including government and personal stations which may have varying degrees of accuracy. Weather forecasts are derived from the NOAA NDFD. Like all things, this site belongs to Jesus Christ... He just trusts us to maintain it. If you have any questions or comments email webmaster@weatherforyou.com

Copyright © 2016, WeatherForYou.com LLC. All rights reserved.